Weather History for KVJI - March, 2013

Change the Weather History Date:

Tuesday, March 5, 2013

  Actual Average (KTRI) Record (KTRI)
Temperature  
Mean Temperature 42 °F 44 °F  
Max Temperature 48 °F 56 °F 77 °F (1955)
Min Temperature 34 °F 32 °F 5 °F (1960)
Degree Days  
Heating Degree Days 24 21  
Month to date heating degree days 109  
Since 1 July heating degree days 3491  
Cooling Degree Days 0 0  
Month to date cooling degree days 0  
Year to date cooling degree days 0  
Moisture  
Dew Point 37 °F    
Average Humidity 84    
Maximum Humidity 100    
Minimum Humidity 54    
Precipitation  
Precipitation 1.20 in 0.11 in 2.13 in (1963)
Month to date precipitation 0.55  
Year to date precipitation 7.37  
Snow  
Snow 0.00 in 0.00 in - ()
Month to date snowfall 0.3  
Since 1 July snowfall 11.1  
Snow Depth -    
Sea Level Pressure  
Sea Level Pressure 29.82 in    
Wind  
Wind Speed 5 mph (East)    
Max Wind Speed 21 mph    
Max Gust Speed 31 mph    
Visibility 8 miles    
Events Rain    
T = Trace of Precipitation, MM = Missing Value Source: NWS Daily Summary

Daily Weather History Graph

Daily Weather History Graph

Search for Another Location

Airport or City:

Trip Planner

Search our weather history database for the weather conditions in past years. The results will help you decide how hot, cold, wet, or windy it might be!

Date:

Astronomy

Mar. 05, 2013 Rise Set
Actual Time 6:52 AM EST 6:26 PM EST
Civil Twilight 6:27 AM EST 6:52 PM EST
Nautical Twilight 5:57 AM EST 7:22 PM EST
Astronomical Twilight 5:27 AM EST 7:52 PM EST
Moon 1:57 AM EST (3/5) 12:11 PM EST (3/5)
Length of Visible Light 12h 25m
Length of Day
11h 33m
Last Quarter, 41% of the Moon is Illuminated
Mar 5
Last Quarter
Mar 11
New
Mar 19
First Quarter
Mar 27
Full
Apr 3
Last Quarter

Hourly Weather History & Observations

Time (EST) Temp. Windchill Dew Point Humidity Pressure Visibility Wind Dir Wind Speed Gust Speed Precip Events Conditions
12:15 AM 39.6 °F - 24.8 °F 56% 30.01 in 10.0 mi Calm Calm - N/A   Mostly Cloudy
12:55 AM 39.2 °F 35.9 °F 28.0 °F 64% 30.00 in 10.0 mi ESE 4.6 mph - N/A   Overcast
1:15 AM 40.1 °F - 24.8 °F 54% 30.02 in 10.0 mi Calm Calm - N/A   Scattered Clouds
1:35 AM 38.5 °F 35.0 °F 28.4 °F 67% 30.01 in 10.0 mi East 4.6 mph - N/A   Mostly Cloudy
1:55 AM 39.2 °F 37.0 °F 25.3 °F 58% 30.01 in 10.0 mi East 3.5 mph - N/A   Overcast
2:15 AM 38.8 °F 36.5 °F 25.0 °F 58% 30.01 in 10.0 mi East 3.5 mph - N/A   Scattered Clouds
2:35 AM 38.1 °F - 25.9 °F 61% 30.00 in 10.0 mi Calm Calm - N/A   Clear
2:55 AM 37.6 °F - 25.7 °F 62% 29.99 in 10.0 mi Calm Calm - N/A   Clear
3:15 AM 37.8 °F 32.5 °F 25.5 °F 61% 29.99 in 10.0 mi East 6.9 mph - N/A   Scattered Clouds
3:35 AM 37.6 °F 34.0 °F 25.3 °F 61% 29.98 in 10.0 mi East 4.6 mph - N/A   Clear
3:55 AM 37.6 °F 33.1 °F 25.7 °F 62% 29.97 in 10.0 mi East 5.8 mph - N/A   Scattered Clouds
4:35 AM 37.8 °F 35.3 °F 25.5 °F 61% 29.97 in 10.0 mi ESE 3.5 mph - N/A   Overcast
4:55 AM 37.9 °F - 27.3 °F 66% 29.97 in 10.0 mi Calm Calm - N/A   Overcast
5:15 AM 38.3 °F 34.8 °F 28.9 °F 69% 29.96 in 10.0 mi East 4.6 mph - N/A   Overcast
5:35 AM 38.8 °F 34.6 °F 27.1 °F 63% 29.95 in 10.0 mi East 5.8 mph - N/A   Overcast
5:55 AM 38.8 °F 36.5 °F 27.5 °F 64% 29.96 in 10.0 mi East 3.5 mph - N/A   Overcast
6:15 AM 39.2 °F 35.0 °F 26.8 °F 61% 29.96 in 10.0 mi East 5.8 mph - N/A   Overcast
6:35 AM 39.7 °F 36.5 °F 27.1 °F 61% 29.95 in 10.0 mi East 4.6 mph - N/A   Overcast
6:55 AM 39.7 °F 37.6 °F 26.6 °F 59% 29.95 in 10.0 mi East 3.5 mph - N/A   Overcast
7:15 AM 40.6 °F 37.5 °F 28.2 °F 61% 29.95 in 10.0 mi SE 4.6 mph - N/A   Overcast
7:35 AM 40.6 °F 38.6 °F 27.3 °F 59% 29.95 in 10.0 mi ENE 3.5 mph - N/A   Overcast
7:55 AM 41.0 °F 38.0 °F 29.3 °F 63% 29.94 in 10.0 mi ESE 4.6 mph - N/A   Overcast
8:15 AM 41.0 °F - 30.4 °F 66% 29.95 in 10.0 mi Calm Calm - N/A   Light Drizzle
8:35 AM 41.4 °F - 31.1 °F 67% 29.96 in 10.0 mi Calm Calm - N/A Rain Light Rain
8:55 AM 40.8 °F - 34.7 °F 79% 29.96 in 5.0 mi Calm Calm - 0.01 in Rain Rain
9:15 AM 39.6 °F - 35.4 °F 85% 29.96 in 2.5 mi Calm Calm - 0.03 in Rain Rain
9:35 AM 39.4 °F - 36.3 °F 89% 29.95 in 2.5 mi Calm Calm - 0.09 in Rain Rain
9:55 AM 39.6 °F 37.4 °F 36.7 °F 89% 29.94 in 5.0 mi East 3.5 mph - 0.11 in Rain Light Rain
10:15 AM 39.7 °F - 37.4 °F 91% 29.94 in 3.0 mi Calm Calm - 0.02 in Rain Rain
10:35 AM 40.1 °F 36.1 °F 38.5 °F 94% 29.93 in 5.0 mi ESE 5.8 mph - 0.05 in Rain Light Rain
10:55 AM 41.0 °F 36.4 °F 40.1 °F 97% 29.91 in 7.0 mi ESE 6.9 mph - 0.06 in   Drizzle
11:15 AM 41.9 °F 36.3 °F 41.5 °F 99% 29.89 in 7.0 mi ESE 9.2 mph - N/A   Overcast
11:35 AM 42.8 °F 37.0 °F 42.3 °F 98% 29.88 in 10.0 mi East 10.4 mph - N/A   Overcast
12:15 PM 44.6 °F 40.2 °F 43.0 °F 94% 29.86 in 10.0 mi East 8.1 mph - N/A   Overcast
12:35 PM 45.0 °F 39.7 °F 43.7 °F 95% 29.84 in 10.0 mi East 10.4 mph - N/A   Overcast
12:55 PM 45.5 °F 39.9 °F 43.9 °F 94% 29.82 in 10.0 mi East 11.5 mph - N/A Rain Light Rain
1:15 PM 46.6 °F - 45.7 °F 97% 29.81 in 10.0 mi East 11.5 mph - N/A Rain Light Rain
1:35 PM 45.7 °F 42.7 °F 44.2 °F 95% 29.80 in 10.0 mi ENE 5.8 mph - N/A   Overcast
1:55 PM 45.0 °F 43.5 °F 44.2 °F 97% 29.81 in 5.0 mi NNE 3.5 mph - 0.02 in Rain Rain
2:15 PM 44.1 °F - 43.9 °F 99% 29.81 in 2.5 mi Calm Calm - 0.07 in Rain Heavy Rain
2:35 PM 43.9 °F 39.9 °F 43.9 °F 100% 29.78 in 1.8 mi East 6.9 mph - 0.21 in Rain Heavy Rain
2:55 PM 44.1 °F 41.5 °F 44.1 °F 100% 29.77 in 4.0 mi East 4.6 mph - 0.28 in Rain Rain
3:15 PM 44.6 °F 41.4 °F 44.6 °F 100% 29.76 in 3.0 mi ENE 5.8 mph - 0.06 in Rain Rain
3:35 PM 44.8 °F 40.4 °F 44.8 °F 100% 29.73 in 4.0 mi East 8.1 mph - 0.12 in Rain Rain
3:55 PM 45.0 °F 39.3 °F 45.0 °F 100% 29.71 in 4.0 mi East 11.5 mph - 0.16 in Rain Rain
4:15 PM 45.5 °F 39.2 °F 45.5 °F 100% 29.69 in 5.0 mi ESE 13.8 mph - 0.01 in Rain Light Rain
4:35 PM 45.9 °F 39.7 °F 45.9 °F 100% 29.66 in 5.0 mi East 13.8 mph - 0.02 in Rain Light Rain
4:55 PM 45.9 °F 40.0 °F 45.9 °F 100% 29.64 in 7.0 mi East 12.7 mph - 0.02 in Rain Light Rain
5:15 PM 45.9 °F 39.4 °F 45.9 °F 100% 29.61 in 7.0 mi East 15.0 mph - N/A Rain Light Rain
5:35 PM 45.9 °F 40.8 °F 45.9 °F 100% 29.61 in 5.0 mi East 10.4 mph - 0.02 in Rain Rain
5:55 PM 46.0 °F - 46.0 °F 100% 29.63 in 4.0 mi Calm Calm - 0.10 in Rain Rain
6:15 PM 45.9 °F 42.3 °F 45.9 °F 100% 29.64 in 3.0 mi East 6.9 mph - 0.10 in Rain Rain
6:35 PM 45.9 °F 41.7 °F 45.9 °F 100% 29.63 in 3.0 mi SE 8.1 mph - 0.17 in Rain Rain
6:55 PM 46.2 °F 39.5 °F 46.2 °F 100% 29.63 in 5.0 mi WSW 16.1 mph 20.7 mph 0.24 in Rain Rain
7:15 PM 48.4 °F - 48.4 °F 100% 29.64 in 5.0 mi WSW 19.6 mph 29.9 mph 0.05 in Rain Rain
7:35 PM 48.2 °F - 48.2 °F 100% 29.59 in 10.0 mi SSW 8.1 mph - 0.07 in Rain Light Rain
7:55 PM 47.8 °F - 47.8 °F 100% 29.59 in 10.0 mi WSW 8.1 mph - 0.07 in   Overcast
8:15 PM 47.8 °F - 47.5 °F 99% 29.59 in 10.0 mi West 9.2 mph - N/A   Overcast
8:35 PM 47.7 °F - 47.3 °F 99% 29.58 in 7.0 mi West 9.2 mph - 0.01 in Rain Rain
8:55 PM 47.3 °F - 47.3 °F 100% 29.58 in 5.0 mi West 10.4 mph - 0.07 in Rain Rain
9:15 PM 47.3 °F - 47.3 °F 100% 29.59 in 5.0 mi West 13.8 mph 21.9 mph 0.04 in Rain Rain
9:35 PM 45.9 °F 38.0 °F 44.6 °F 95% 29.62 in 7.0 mi WNW 20.7 mph 31.1 mph 0.06 in Rain Rain
10:15 PM 41.9 °F 32.8 °F 38.7 °F 88% 29.65 in 10.0 mi WNW 20.7 mph 31.1 mph N/A Rain Light Rain
10:35 PM 39.9 °F 30.5 °F 37.2 °F 90% 29.67 in 10.0 mi WNW 19.6 mph 27.6 mph N/A   Light Drizzle
11:15 PM 36.7 °F 27.6 °F 34.0 °F 90% 29.69 in 10.0 mi WNW 15.0 mph 27.6 mph N/A   Overcast
11:35 PM 35.8 °F 26.5 °F 32.5 °F 88% 29.69 in 10.0 mi WNW 15.0 mph 26.5 mph N/A   Overcast
11:55 PM 34.7 °F 24.7 °F 32.2 °F 91% 29.69 in 10.0 mi WNW 16.1 mph 27.6 mph N/A   Overcast